This is the latest recevied weather packets stored in our database for station/object TK5EP-13. If no packets are shown the sender has not sent any weather packets the latest 1 day(s).
| Time | Temp. | Humidity | Pressure | Rain* | Wind** | Luminosity | Snow |
|---|---|---|---|---|---|---|---|
| 1778027779 | 12.22° C | 96% | - | - | 6.71 m/s, 150° | - | - |
| 1778027478 | 12.22° C | 96% | - | - | 5.81 m/s, 146° | - | - |
| 1778027177 | 12.22° C | 96% | - | - | 5.36 m/s, 142° | - | - |
| 1778026876 | 12.22° C | 96% | - | - | 5.36 m/s, 152° | - | - |
| 1778026574 | 12.22° C | 96% | - | - | 6.26 m/s, 152° | - | - |
| 1778026273 | 12.22° C | 96% | - | - | 5.81 m/s, 153° | - | - |
| 1778025972 | 12.22° C | 96% | - | - | 4.47 m/s, 131° | - | - |
| 1778025671 | 12.22° C | 96% | - | - | 5.36 m/s, 144° | - | - |
| 1778025370 | 12.22° C | 96% | - | - | 4.92 m/s, 137° | - | - |
| 1778025070 | 12.22° C | 96% | - | - | 5.36 m/s, 141° | - | - |
| 1778024769 | 12.22° C | 96% | - | - | 5.36 m/s, 149° | - | - |
| 1778024468 | 12.22° C | 96% | - | - | 4.92 m/s, 150° | - | - |
| 1778024167 | 12.22° C | 96% | - | - | 5.36 m/s, 147° | - | - |
| 1778023866 | 12.22° C | 96% | - | - | 5.36 m/s, 157° | - | - |
| 1778023566 | 12.22° C | 96% | - | - | 5.81 m/s, 158° | - | - |
| 1778023265 | 12.78° C | 96% | - | - | 5.81 m/s, 174° | - | - |
| 1778022964 | 12.22° C | 96% | - | - | 5.36 m/s, 177° | - | - |
| 1778022660 | 12.22° C | 96% | - | - | 6.26 m/s, 178° | - | - |
| 1778022359 | 12.22° C | 96% | - | - | 6.71 m/s, 181° | - | - |
| 1778022059 | 12.78° C | 96% | - | - | 6.26 m/s, 175° | - | - |
| 1778021755 | 12.78° C | 96% | - | - | 5.81 m/s, 186° | - | - |
| 1778021454 | 12.78° C | 96% | - | - | 5.81 m/s, 182° | - | - |
| 1778021153 | 12.78° C | 96% | - | - | 4.92 m/s, 180° | - | - |
| 1778020852 | 12.78° C | 96% | - | - | 6.71 m/s, 185° | - | - |
| 1778020551 | 12.78° C | 95% | - | - | 4.92 m/s, 181° | - | - |
* Rain since midnight (hover to see other rain measurements)
** Current wind speed in m/s (hover to see current wind gust speed)